STARLINK-36077 (66903 NORAD) Tracking and Keplerian Element Data

This shows tracking and keplerian element data for the satellite.

Feedback or suggestion? Click here.




ElementValue
Catalog66903
NameSTARLINK-36077
Epoch Orbit363
Epoch Day354.25003472
Epoch Year2025
RAAN36.044
Inclination53.1575
Eccentricity0.0001092
Argument of Perigee92.1107
Mean Anonmoly179.8757
Mean Motion15.74233723
Decay Rate-0.00105722
L11 66903U 25283AB 25354.25003472 -.00105722 00000+0 -72522-3 0 9995
L22 66903 53.1575 36.0440 0001092 92.1107 179.8757 15.74233723 3634



Live tracking and technical data element details for STARLINK-36077 (NORAD 66903). STARLINK-36077 can be tracked NOW for your location showing map with azimuth and elevation plus other details from your city location.







IsCatalogInMostPopularTable: catalog: 66903, numindb: 20
Update: records affected: 1



GetName: 66903 STARLINK-36077

Hit Count: updated at: Mon, 20 Apr 2026 09:47:12 GMT